FLOCK 4A-20 (44091 NORAD) Tracking and Keplerian Element Data

This shows tracking and keplerian element data for the satellite.

Feedback or suggestion? Click here.




ElementValue
Catalog44091
NameFLOCK 4A-20
Epoch Orbit435
Epoch Day119.94463949
Epoch Year2019
RAAN180.2623
Inclination97.4616
Eccentricity0.0014101
Argument of Perigee179.585
Mean Anonmoly180.54
Mean Motion15.21644371
Decay Rate9.17E-06
L11 44091U 19018P 19119.94463949 .00000917 00000-0 43602-4 0 9992
L22 44091 97.4616 180.2623 0014101 179.5850 180.5400 15.21644371 4351

Live tracking and technical data element details for FLOCK 4A-20 (NORAD 44091). FLOCK 4A-20 can be tracked NOW for your location showing map with azimuth and elevation plus other details from your city location.

Track the satellite on the map from your city or location and see movement details for azimuth, elevation, latitude, longitude, range, height, and movement on the map or in text.







IsCatalogInMostPopularTable: catalog: 44091, numindb: 31
Update: records affected: 1



GetName: 44091 FLOCK 4A-20

Hit Count: updated at: Mon, 15 Jul 2019 22:26:28 GMT